sat.trackr.live / text

‹ back to catalog

STARLINK-36259

NORAD 67106 · 2025-299E

PAYLOAD ACTIVE UNKNOWN

§ Identity

Operator
Country
US
Launch date
2025-12-15
Launch site
AFETR
Launch vehicle
Mass (kg)
RCS (m²)

Purposes: comms

External: N2YO · Heavens-Above · Gunter

§ Orbital elements

Epoch: 2026-05-25T03:37:16.768128Z

Period
94.27 min
Inclination
42.9996°
Eccentricity
0.0000965
Mean motion
15.27603575 rev/d
Perigee alt
482.3 km
Apogee alt
483.6 km
Semi-major
6,861.1 km
B*
6.2527e-4
RAAN
96.8648°
Arg perigee
261.0047°
Mean anomaly
99.0696°
Rev number
2,481

§ Raw data

STARLINK-362591 67106U 25299E   26145.15088852  .00016996  00000+0  62527-3 0  99972 67106  42.9996  96.8648 0000965 261.0047  99.0696 15.27603575 24817

JSON: /api/v1/satellites/67106 · /tle

For live sub-satellite position, see the globe view (requires WebGL).

§ Visibility from observer

Set your observer location to see the next 7 days of passes ≥ 10°. The values pass through the URL so the page stays shareable.

No JS? Fill the form by hand. The geolocation button needs JavaScript.